Location: pereira
(4.8150°N, 75.7450°W)
Time: 16:04:47
(UTC-04:00)

ISS - Visible Passes

Search period start: 19 October 2017 00:00
Search period end: 29 October 2017 00:00
Orbit: 401 x 408 km, 51.6° (Epoch: 20 October)

Date Brightness Start Highest point End Pass type
(mag) Time Alt. Az. Time Alt. Az. Time Alt. Az.
19 Oct -3.5 20:03:07 10° NW 20:06:22 63° SW 20:07:07 46° S visible
20 Oct -3.4 19:11:03 10° NNW 19:14:09 40° NE 19:17:16 10° SE visible
21 Oct -0.7 19:56:05 10° W 19:58:11 16° SW 20:00:16 10° SSW visible
22 Oct -2.3 19:02:49 10° NW 19:05:56 42° SW 19:09:04 10° SSE visible
24 Oct -0.6 05:48:02 10° SSE 05:49:44 13° SE 05:51:24 10° E visible
26 Oct -3.0 05:38:14 10° SSW 05:41:25 51° SE 05:44:35 10° NE visible
27 Oct -0.7 04:50:24 15° E 04:50:24 15° E 04:51:29 10° ENE visible
27 Oct -1.9 06:23:50 10° W 06:25:24 13° NW 06:27:00 10° NNW visible
28 Oct -1.8 05:35:03 17° N 05:35:03 17° N 05:36:01 10° NNE visible
